This is the latest recevied weather packets stored in our database for station/object KK4XZ. If no packets are shown the sender has not sent any weather packets the latest 10 day(s).
| Time | Temp. | Humidity | Pressure | Rain* | Wind** | Luminosity | Snow |
|---|---|---|---|---|---|---|---|
| 1778004323 | 23.89° C | 60% | 1018.1 hPa | 0 mm | - | - | - |
| 1778003718 | 23.33° C | 62% | 1018.3 hPa | 0 mm | - | - | - |
| 1778003133 | 23.33° C | 60% | 1018.4 hPa | 0 mm | - | - | - |
| 1778002528 | 23.89° C | 58% | 1018.2 hPa | 0 mm | - | - | - |
| 1778001923 | 23.33° C | 57% | 1018.5 hPa | 0 mm | - | - | - |
| 1778001319 | 23.89° C | 57% | 1018.5 hPa | 0 mm | - | - | - |
| 1778000734 | 23.89° C | 56% | 1018.7 hPa | 0 mm | - | - | - |
| 1778000129 | 23.89° C | 57% | 1018.6 hPa | 0 mm | - | - | - |
| 1777999524 | 23.33° C | 57% | 1018.7 hPa | 0 mm | - | - | - |
| 1777998919 | 24.44° C | 55% | 1018.7 hPa | 0 mm | - | - | - |
| 1777998334 | 24.44° C | 55% | 1018.7 hPa | 0 mm | - | - | - |
| 1777997729 | 23.89° C | 57% | 1018.8 hPa | 0 mm | - | - | - |
| 1777997124 | 23.33° C | 58% | 1018.9 hPa | 0 mm | - | - | - |
| 1777996520 | 23.33° C | 58% | 1019 hPa | 0 mm | - | - | - |
| 1777995935 | 23.33° C | 57% | 1018.9 hPa | 0 mm | - | - | - |
| 1777995330 | 23.33° C | 58% | 1019 hPa | 0 mm | - | - | - |
| 1777994725 | 23.33° C | 59% | 1019 hPa | 0 mm | - | - | - |
| 1777994120 | 23.33° C | 59% | 1018.9 hPa | 0 mm | - | - | - |
| 1777993536 | 23.33° C | 59% | 1018.9 hPa | 0 mm | - | - | - |
| 1777992931 | 23.33° C | 61% | 1018.8 hPa | 0 mm | - | - | - |
| 1777992326 | 22.78° C | 62% | 1018.8 hPa | 0 mm | - | - | - |
| 1777991721 | 22.22° C | 62% | 1018.8 hPa | 0 mm | - | - | - |
| 1777991136 | 22.22° C | 62% | 1018.7 hPa | 0 mm | - | - | - |
| 1777990532 | 22.22° C | 63% | 1018.8 hPa | 0 mm | - | - | - |
| 1777989927 | 22.22° C | 64% | 1018.6 hPa | 0 mm | - | - | - |
* Rain latest hour (hover to see other rain measurements)
** Current wind speed in m/s (hover to see current wind gust speed)